| time (UTC) | temp F | wind direction | speed MPH | gust MPH | rain 1hr in | rain 24hr in | rain mn in | humidity % | barometer mb |
| 20260505054041 | 69 | 152 | 0.0 | 1.0 | 0.00 | 0.55 | 0.35 | 65 | 1016.3 |
| 20260505053042 | 69 | 0 | 0.0 | 2.0 | 0.00 | 0.55 | 0.35 | 64 | 1016.4 |
| 20260505052518 | 68 | 212 | 0.0 | 1.0 | 0.00 | 0.55 | 0.35 | 68 | 1016.1 |
| 20260505051041 | 69 | 103 | 0.0 | 2.0 | 0.00 | 0.55 | 0.35 | 68 | 1016.1 |
| 20260505041039 | 70 | 0 | 1.0 | 3.0 | 0.00 | 0.55 | 0.35 | 60 | 1016.1 |
| 20260505040039 | 70 | 0 | 1.0 | 3.0 | 0.00 | 0.55 | 0.35 | 60 | 1016.0 |
| 20260505035038 | 69 | 0 | 0.0 | 2.0 | 0.00 | 0.55 | 0.35 | 62 | 1016.0 |
| 20260505034037 | 68 | 89 | 0.0 | 2.0 | 0.00 | 0.55 | 0.35 | 63 | 1016.2 |
| 20260505033036 | 68 | 138 | 0.0 | 2.0 | 0.00 | 0.55 | 0.35 | 65 | 1016.2 |
| 20260505032038 | 69 | 116 | 1.0 | 4.0 | 0.00 | 0.55 | 0.35 | 63 | 1016.4 |
| 20260505031039 | 69 | 88 | 1.0 | 4.0 | 0.00 | 0.55 | 0.35 | 64 | 1016.5 |
| 20260505030037 | 69 | 193 | 1.0 | 5.0 | 0.00 | 0.55 | 0.35 | 65 | 1016.6 |
| 20260505025034 | 69 | 115 | 1.0 | 2.0 | 0.00 | 0.55 | 0.35 | 68 | 1016.8 |
| 20260505024034 | 69 | 193 | 1.0 | 3.0 | 0.00 | 0.55 | 0.35 | 70 | 1016.8 |
| 20260505023035 | 68 | 225 | 1.0 | 3.0 | 0.00 | 0.55 | 0.35 | 70 | 1017.0 |
| 20260505022035 | 68 | 108 | 1.0 | 3.0 | 0.00 | 0.55 | 0.35 | 66 | 1017.1 |
| 20260505021036 | 69 | 102 | 1.0 | 3.0 | 0.00 | 0.55 | 0.35 | 63 | 1017.1 |
| 20260505020035 | 69 | 123 | 1.0 | 2.0 | 0.00 | 0.55 | 0.35 | 63 | 1017.2 |
| 20260505015512 | 69 | 142 | 1.0 | 3.0 | 0.00 | 0.55 | 0.35 | 61 | 1017.3 |
| 20260505014031 | 68 | 73 | 1.0 | 3.0 | 0.00 | 0.55 | 0.35 | 61 | 1017.5 |
| 20260505013032 | 68 | 189 | 1.0 | 4.0 | 0.00 | 0.55 | 0.35 | 63 | 1017.6 |
| 20260505012033 | 68 | 124 | 1.0 | 4.0 | 0.00 | 0.55 | 0.35 | 63 | 1017.7 |
| 20260505011506 | 68 | 105 | 1.0 | 3.0 | 0.00 | 0.55 | 0.35 | 65 | 1017.8 |
| 20260505010033 | 68 | 103 | 0.0 | 3.0 | 0.00 | 0.55 | 0.35 | 67 | 1018.0 |
| 20260505005031 | 67 | 192 | 0.0 | 3.0 | 0.00 | 0.55 | 0.35 | 66 | 1017.9 |
| 20260505004030 | 67 | 137 | 1.0 | 4.0 | 0.00 | 0.55 | 0.35 | 64 | 1018.0 |
| 20260505003506 | 67 | 114 | 1.0 | 4.0 | 0.00 | 0.55 | 0.35 | 68 | 1018.1 |
| 20260505002031 | 66 | 162 | 1.0 | 3.0 | 0.00 | 0.55 | 0.35 | 67 | 1018.2 |
| 20260505001030 | 66 | 0 | 1.0 | 5.0 | 0.00 | 0.55 | 0.35 | 67 | 1018.2 |
| 20260505000029 | 66 | 159 | 1.0 | 6.0 | 0.00 | 0.55 | 0.35 | 67 | 1018.2 |
| 20260504235029 | 65 | 332 | 1.0 | 3.0 | 0.00 | 0.55 | 0.35 | 69 | 1018.1 |
| 20260504234029 | 64 | 161 | 1.0 | 3.0 | 0.00 | 0.55 | 0.35 | 71 | 1018.0 |
| 20260504233029 | 64 | 90 | 1.0 | 4.0 | 0.00 | 0.55 | 0.35 | 69 | 1018.3 |
| 20260504232029 | 64 | 0 | 1.0 | 6.0 | 0.00 | 0.55 | 0.35 | 67 | 1018.2 |
| 20260504231029 | 64 | 25 | 1.0 | 7.0 | 0.00 | 0.55 | 0.35 | 71 | 1018.4 |
| 20260504230029 | 63 | 172 | 1.0 | 3.0 | 0.00 | 0.55 | 0.35 | 77 | 1018.4 |
| 20260504225027 | 62 | 77 | 1.0 | 4.0 | 0.00 | 0.55 | 0.35 | 80 | 1018.2 |
| 20260504224026 | 61 | 106 | 1.0 | 4.0 | 0.00 | 0.55 | 0.35 | 89 | 1018.0 |
| 20260504223027 | 60 | 280 | 1.0 | 3.0 | 0.00 | 0.55 | 0.35 | 93 | 1017.9 |
| 20260504222027 | 60 | 0 | 1.0 | 3.0 | 0.00 | 0.55 | 0.35 | 95 | 1017.8 |
| 20260504221025 | 62 | 204 | 1.0 | 4.0 | 0.00 | 0.55 | 0.35 | 95 | 1017.5 |
| 20260504220023 | 62 | 218 | 0.0 | 2.0 | 0.00 | 0.55 | 0.35 | 95 | 1017.4 |
| 20260504215024 | 62 | 0 | 0.0 | 1.0 | 0.00 | 0.55 | 0.35 | 95 | 1017.2 |
| 20260504214021 | 62 | 184 | 0.0 | 1.0 | 0.00 | 0.55 | 0.35 | 95 | 1017.0 |
| 20260504213021 | 62 | 18 | 0.0 | 2.0 | 0.00 | 0.55 | 0.35 | 95 | 1016.9 |
| 20260504212505 | 63 | 297 | 0.0 | 2.0 | 0.00 | 0.55 | 0.35 | 95 | 1016.7 |
| 20260504211020 | 63 | 196 | 1.0 | 2.0 | 0.00 | 0.55 | 0.35 | 95 | 1016.4 |
| 20260504210019 | 63 | 98 | 0.0 | 2.0 | 0.00 | 0.55 | 0.35 | 95 | 1016.5 |
| 20260504205502 | 63 | 319 | 0.0 | 2.0 | 0.00 | 0.55 | 0.35 | 95 | 1016.4 |
| 20260504204508 | 63 | 123 | 0.0 | 2.0 | 0.00 | 0.55 | 0.35 | 95 | 1016.3 |
| 20260504203020 | 63 | 0 | 0.0 | 2.0 | 0.00 | 0.55 | 0.35 | 95 | 1016.2 |
| 20260504202020 | 63 | 237 | 0.0 | 2.0 | 0.00 | 0.55 | 0.35 | 95 | 1016.0 |
| 20260504201017 | 63 | 183 | 0.0 | 2.0 | 0.00 | 0.55 | 0.35 | 95 | 1015.9 |
| 20260504200458 | 63 | 115 | 0.0 | 2.0 | 0.00 | 0.55 | 0.35 | 95 | 1015.7 |
| 20260504195458 | 63 | 142 | 1.0 | 3.0 | 0.00 | 0.55 | 0.35 | 95 | 1015.6 |
| 20260504194017 | 63 | 0 | 1.0 | 2.0 | 0.00 | 0.55 | 0.35 | 95 | 1015.7 |
| 20260504193458 | 63 | 174 | 0.0 | 3.0 | 0.00 | 0.55 | 0.35 | 95 | 1015.3 |
| 20260504192018 | 63 | 201 | 0.0 | 2.0 | 0.00 | 0.55 | 0.35 | 95 | 1015.3 |
| 20260504191014 | 63 | 223 | 0.0 | 2.0 | 0.00 | 0.55 | 0.35 | 95 | 1015.1 |
| 20260504190015 | 62 | 203 | 0.0 | 2.0 | 0.00 | 0.55 | 0.35 | 94 | 1015.0 |
| 20260504185013 | 63 | 194 | 0.0 | 2.0 | 0.00 | 0.55 | 0.35 | 94 | 1015.0 |
| 20260504184450 | 63 | 100 | 0.0 | 1.0 | 0.00 | 0.55 | 0.35 | 94 | 1015.0 |
| 20260504183451 | 63 | 188 | 0.0 | 1.0 | 0.00 | 0.55 | 0.35 | 94 | 1015.0 |
| 20260504182013 | 63 | 279 | 0.0 | 1.0 | 0.01 | 0.55 | 0.35 | 94 | 1014.8 |
| 20260504181014 | 63 | 171 | 0.0 | 2.0 | 0.01 | 0.55 | 0.35 | 94 | 1014.8 |
| 20260504180011 | 63 | 196 | 0.0 | 1.0 | 0.01 | 0.55 | 0.35 | 94 | 1014.9 |
| 20260504175451 | 64 | 84 | 0.0 | 2.0 | 0.02 | 0.55 | 0.35 | 94 | 1015.1 |
| 20260504174449 | 63 | 166 | 0.0 | 2.0 | 0.04 | 0.55 | 0.35 | 94 | 1015.0 |
| 20260504173011 | 63 | 146 | 0.0 | 1.0 | 0.07 | 0.55 | 0.34 | 94 | 1014.8 |
| 20260504172011 | 64 | 165 | 0.0 | 1.0 | 0.09 | 0.54 | 0.34 | 94 | 1015.0 |
| 20260504171454 | 64 | 202 | 0.0 | 2.0 | 0.13 | 0.54 | 0.34 | 94 | 1015.0 |
| 20260504170443 | 64 | 191 | 0.0 | 2.0 | 0.15 | 0.54 | 0.33 | 94 | 1015.0 |
| 20260504140956 | 65 | 201 | 1.0 | 2.0 | 0.03 | 0.21 | 0.01 | 93 | 1014.5 |
| 20260504100408 | 68 | 185 | 0.0 | 2.0 | 0.05 | 0.10 | 0.10 | 91 | 1016.1 |
| 20260504081928 | 70 | 151 | 0.0 | 1.0 | 0.01 | 0.04 | 0.04 | 87 | 1015.1 |
| 20260504080927 | 71 | 219 | 0.0 | 2.0 | 0.00 | 0.03 | 0.03 | 86 | 1015.0 |
| 20260504070354 | 71 | 237 | 0.0 | 3.0 | 0.03 | 0.03 | 0.03 | 85 | 1014.3 |